FW3572 Weather Reports


Display with metric or nautical units.
time (UTC)temp
F
wind
direction
speed
MPH
gust
MPH
rain 1hr
in
rain 24hr
in
rain mn
in
humidity
%
barometer
mb
20260504045555 74 355 2.0 10.0 0.00 0.09 0.00 100 1017.4
20260504045056 74 96 2.0 10.0 0.00 0.09 0.00 100 1017.5
20260504044557 74 21 3.0 10.0 0.00 0.09 0.00 100 1017.5
20260504044055 74 67 2.0 10.0 0.00 0.09 0.00 100 1017.4
20260504043553 74 33 2.0 12.0 0.00 0.09 0.00 100 1017.5
20260504043054 74 5 2.0 12.0 0.00 0.09 0.00 100 1017.7
20260504042550 74 71 1.0 5.0 0.00 0.09 0.00 100 1017.8
20260504042048 74 49 1.0 5.0 0.00 0.09 0.00 100 1017.7
20260504041546 74 52 1.0 5.0 0.00 0.09 0.00 100 1017.7
20260504041046 74 76 1.0 5.0 0.00 0.09 0.00 100 1017.7
20260504040548 74 138 1.0 10.0 0.00 0.09 0.00 100 1017.7
20260504040100 74 66 2.0 10.0 0.00 0.09 0.00 100 1017.8
20260504035543 74 54 1.0 6.0 0.00 0.09 0.00 100 1017.9
20260504035039 74 39 1.0 8.0 0.00 0.09 0.00 100 1017.9
20260504034541 74 106 2.0 8.0 0.00 0.09 0.09 100 1017.9
20260504034039 74 127 2.0 8.0 0.00 0.09 0.09 100 1017.9
20260504033539 74 84 2.0 8.0 0.00 0.09 0.09 100 1017.9
20260504033040 73 134 3.0 8.0 0.00 0.09 0.09 100 1017.9
20260504032538 73 50 0.0 6.0 0.00 0.09 0.09 100 1018.2
20260504032038 73 121 1.0 7.0 0.00 0.09 0.09 100 1018.2
20260504031538 73 94 1.0 7.0 0.00 0.09 0.09 100 1018.3
20260504031037 73 90 2.0 7.0 0.00 0.09 0.09 100 1018.2
20260504030537 73 49 1.0 6.0 0.00 0.09 0.09 100 1018.2
20260504030037 73 58 2.0 8.0 0.00 0.09 0.09 100 1018.1
20260504025538 73 38 2.0 8.0 0.00 0.09 0.09 100 1018.0
20260504025040 73 355 1.0 8.0 0.00 0.09 0.09 100 1017.9
20260504024537 73 360 2.0 10.0 0.00 0.09 0.09 100 1018.0
20260504024036 74 336 3.0 12.0 0.00 0.09 0.09 100 1018.1
20260504023536 74 51 2.0 12.0 0.00 0.09 0.09 100 1018.1
20260504023036 74 12 1.0 5.0 0.00 0.09 0.09 100 1018.1
20260504022537 74 63 1.0 8.0 0.00 0.09 0.09 100 1018.1
20260504022034 74 144 2.0 8.0 0.00 0.09 0.09 100 1018.0
20260504021536 74 65 2.0 6.0 0.00 0.09 0.09 100 1018.0
20260504021034 74 158 1.0 8.0 0.00 0.09 0.09 100 1017.9
20260504020535 74 65 1.0 8.0 0.00 0.09 0.09 100 1017.8
20260504020037 74 42 1.0 6.0 0.00 0.09 0.09 100 1017.8
20260504015535 74 65 1.0 6.0 0.00 0.09 0.09 100 1017.7
20260504015039 73 86 2.0 6.0 0.00 0.09 0.09 100 1017.7
20260504014537 73 82 2.0 12.0 0.00 0.09 0.09 100 1017.7
20260504014034 73 149 4.0 12.0 0.00 0.09 0.09 100 1017.6
20260504013534 73 57 2.0 11.0 0.00 0.09 0.09 100 1017.6
20260504013034 73 119 2.0 11.0 0.00 0.09 0.09 100 1017.6
20260504012536 73 36 2.0 6.0 0.00 0.09 0.09 100 1017.5
20260504012033 73 59 2.0 8.0 0.00 0.09 0.09 100 1017.7
20260504011532 73 111 1.0 8.0 0.00 0.09 0.09 100 1017.6
20260504011032 73 53 2.0 8.0 0.00 0.09 0.09 100 1017.5
20260504010532 73 94 3.0 8.0 0.00 0.09 0.09 100 1017.6
20260504010032 73 17 2.0 9.0 0.00 0.09 0.09 100 1017.4
20260504005535 73 38 2.0 9.0 0.00 0.09 0.09 100 1017.5
20260504005032 73 147 3.0 11.0 0.00 0.09 0.09 100 1017.5
20260504004541 73 44 2.0 11.0 0.00 0.09 0.09 100 1017.6
20260504004031 73 63 2.0 9.0 0.00 0.09 0.09 100 1017.6
20260504003534 73 49 3.0 9.0 0.00 0.09 0.09 100 1017.5
20260504003031 73 5 2.0 9.0 0.00 0.09 0.09 100 1017.5
20260504002530 73 32 3.0 9.0 0.00 0.09 0.09 100 1017.3
20260504002030 73 94 2.0 13.0 0.00 0.09 0.09 100 1017.2
20260504001530 73 87 2.0 13.0 0.00 0.09 0.09 100 1017.4
20260504001031 73 349 2.0 10.0 0.00 0.09 0.09 100 1017.3
20260504000531 72 82 2.0 10.0 0.00 0.09 0.09 100 1017.3
20260504000029 73 32 1.0 11.0 0.00 0.09 0.09 100 1017.3
20260503235529 73 338 3.0 11.0 0.00 0.09 0.09 100 1017.1
20260503235029 73 84 2.0 9.0 0.00 0.09 0.09 100 1017.1
20260503234533 73 15 3.0 9.0 0.00 0.09 0.09 100 1017.0
20260503234029 73 51 2.0 10.0 0.00 0.09 0.09 100 1017.0
20260503233529 73 25 3.0 10.0 0.00 0.09 0.09 100 1017.0
20260503233028 73 340 1.0 10.0 0.00 0.09 0.09 100 1017.1
20260503232530 73 54 3.0 12.0 0.00 0.09 0.09 100 1017.0
20260503232028 73 47 3.0 10.0 0.00 0.09 0.09 100 1016.9
20260503231528 73 95 4.0 12.0 0.00 0.09 0.09 100 1016.8
20260503231028 73 49 5.0 12.0 0.00 0.09 0.09 100 1016.8
20260503230527 73 360 1.0 8.0 0.00 0.09 0.09 100 1016.9
20260503230028 73 34 2.0 8.0 0.00 0.09 0.09 100 1016.9
20260503225528 73 44 1.0 8.0 0.00 0.09 0.09 100 1016.8
20260503225030 73 61 1.0 4.0 0.00 0.09 0.09 100 1016.9
20260503224528 73 80 0.0 4.0 0.00 0.09 0.09 100 1016.9
20260503224028 73 104 1.0 9.0 0.00 0.09 0.09 100 1016.8
20260503223531 73 23 3.0 9.0 0.00 0.09 0.09 100 1016.8
20260503223027 73 349 1.0 6.0 0.00 0.09 0.09 100 1016.8
20260503222528 73 355 1.0 9.0 0.00 0.09 0.09 100 1016.8
20260503222030 73 344 2.0 9.0 0.00 0.09 0.09 100 1016.8
20260503221527 73 78 1.0 9.0 0.00 0.09 0.09 100 1017.0
20260503221026 73 46 1.0 4.0 0.00 0.09 0.09 100 1017.0
20260503220528 73 80 1.0 7.0 0.00 0.09 0.09 100 1017.1
20260503220026 73 88 1.0 10.0 0.00 0.09 0.09 100 1017.0
20260503215526 73 355 3.0 10.0 0.00 0.09 0.09 100 1016.9
20260503215025 73 360 2.0 5.0 0.00 0.09 0.09 100 1017.0
20260503214526 72 136 1.0 5.0 0.00 0.09 0.09 100 1017.1
20260503214025 72 95 2.0 6.0 0.00 0.09 0.09 100 1017.1
20260503213525 73 46 1.0 6.0 0.00 0.09 0.09 100 1017.0
20260503213026 72 46 1.0 6.0 0.00 0.09 0.09 100 1016.9
20260503212525 72 102 2.0 6.0 0.00 0.09 0.09 100 1017.1
20260503212026 72 98 1.0 6.0 0.00 0.09 0.09 100 1017.1
20260503211524 73 80 0.0 4.0 0.00 0.09 0.09 100 1017.1
20260503211029 72 105 0.0 6.0 0.00 0.09 0.09 100 1017.0
20260503210528 72 119 1.0 6.0 0.00 0.09 0.09 100 1017.2
20260503210023 72 28 0.0 5.0 0.00 0.09 0.09 100 1017.3
20260503205523 72 51 1.0 6.0 0.00 0.09 0.09 100 1017.3
20260503205023 72 360 3.0 8.0 0.00 0.09 0.09 100 1017.3
20260503204528 72 15 3.0 8.0 0.00 0.09 0.09 100 1017.5
20260503204027 72 40 2.0 5.0 0.00 0.09 0.09 100 1017.6
20260503203530 72 355 0.0 5.0 0.00 0.09 0.09 100 1017.6
20260503203024 72 15 1.0 5.0 0.00 0.09 0.09 100 1017.8
20260503202522 72 44 1.0 5.0 0.00 0.09 0.09 100 1017.9
20260503202022 72 41 1.0 6.0 0.00 0.09 0.09 100 1017.9
20260503201522 72 38 2.0 8.0 0.00 0.09 0.09 100 1017.7
20260503201021 72 26 1.0 8.0 0.00 0.09 0.09 100 1017.6
20260503200521 72 40 1.0 6.0 0.00 0.09 0.09 100 1017.7
20260503200022 72 24 1.0 6.0 0.00 0.09 0.09 100 1017.6
20260503195521 72 40 2.0 9.0 0.00 0.09 0.09 100 1017.5
20260503195025 72 24 1.0 11.0 0.00 0.09 0.09 100 1017.6
20260503194521 72 15 1.0 11.0 0.00 0.09 0.09 100 1017.7
20260503194021 72 14 3.0 11.0 0.00 0.09 0.09 100 1017.7
20260503193523 72 9 3.0 8.0 0.00 0.09 0.09 100 1017.7
20260503193035 72 26 3.0 10.0 0.00 0.09 0.09 100 1017.6
20260503192520 71 22 3.0 10.0 0.00 0.09 0.09 100 1017.7
20260503192024 71 341 4.0 10.0 0.00 0.09 0.09 100 1017.7
20260503191520 71 58 3.0 11.0 0.00 0.09 0.09 100 1017.8
20260503191023 71 19 2.0 14.0 0.00 0.09 0.09 100 1018.0
20260503190520 71 10 4.0 14.0 0.00 0.09 0.09 100 1018.0
20260503190020 71 355 3.0 10.0 0.00 0.09 0.09 100 1018.2
20260503185520 71 11 3.0 13.0 0.00 0.09 0.09 100 1018.2
20260503185019 71 38 5.0 13.0 0.00 0.09 0.09 100 1018.2
20260503184524 71 5 4.0 10.0 0.00 0.09 0.09 100 1018.4
20260503184021 71 13 3.0 10.0 0.00 0.09 0.09 100 1018.3
20260503183518 70 55 4.0 10.0 0.00 0.09 0.09 100 1018.4
20260503183019 70 76 4.0 9.0 0.00 0.09 0.09 100 1018.5
20260503182517 70 60 3.0 11.0 0.00 0.09 0.09 100 1018.5
20260503182020 70 360 3.0 11.0 0.00 0.09 0.09 100 1018.6
20260503181518 71 73 4.0 17.0 0.00 0.09 0.09 100 1018.6
20260503181017 71 19 7.0 17.0 0.00 0.09 0.09 100 1018.8
20260503180517 71 42 3.0 12.0 0.00 0.09 0.09 100 1018.8
20260503180019 71 10 4.0 12.0 0.00 0.09 0.09 100 1018.8
20260503175514 71 342 2.0 11.0 0.00 0.09 0.09 100 1018.8
20260503175015 71 28 1.0 9.0 0.00 0.09 0.09 100 1018.8
20260503174515 72 18 3.0 8.0 0.00 0.09 0.09 100 1018.7
20260503174015 72 277 1.0 10.0 0.00 0.09 0.09 100 1018.6
20260503173515 72 30 2.0 11.0 0.00 0.09 0.09 100 1018.8
20260503173022 71 19 4.0 11.0 0.00 0.09 0.09 100 1018.8
20260503172513 71 317 2.0 8.0 0.00 0.09 0.09 100 1018.8
20260503172015 71 348 4.0 9.0 0.00 0.09 0.09 100 1018.9
20260503171521 71 163 3.0 12.0 0.00 0.09 0.09 100 1018.8
20260503171013 71 348 4.0 12.0 0.00 0.09 0.09 100 1018.7
20260503170513 71 340 5.0 12.0 0.00 0.09 0.09 100 1018.8
20260503151005 72 327 2.0 11.0 0.00 0.09 0.09 100 1018.9
20260503150504 72 16 3.0 15.0 0.00 0.09 0.09 100 1018.9
20260503131055 71 5 5.0 12.0 0.00 0.09 0.09 100 1017.7
20260503130558 71 69 4.0 10.0 0.00 0.09 0.09 100 1017.6
20260503110538 70 348 8.0 13.0 0.01 0.09 0.09 100 1016.3
20260503081521 72 317 1.0 4.0 0.00 0.00 0.00 100 1015.6
20260503081024 72 315 2.0 4.0 0.00 0.00 0.00 100 1015.6
20260503080522 72 320 1.0 5.0 0.00 0.00 0.00 100 1015.4
20260503072520 72 303 0.0 3.0 0.00 0.00 0.00 100 1015.0
20260503072020 72 312 0.0 1.0 0.00 0.00 0.00 100 1014.9
20260503071521 72 316 0.0 0.0 0.00 0.00 0.00 100 1014.8
20260503071019 72 316 0.0 2.0 0.00 0.00 0.00 100 1014.7
20260503070519 72 305 0.0 4.0 0.00 0.00 0.00 100 1014.8
20260503055014 73 338 0.0 8.0 0.00 0.00 0.00 100 1015.3
20260503054514 73 240 1.0 8.0 0.00 0.00 0.00 100 1015.4
20260503054013 73 301 2.0 9.0 0.00 0.00 0.00 100 1015.5
20260503053513 73 331 2.0 9.0 0.00 0.00 0.00 100 1015.5
20260503053013 73 287 2.0 7.0 0.00 0.00 0.00 100 1015.7
20260503052512 73 275 2.0 6.0 0.00 0.00 0.00 100 1015.7
20260503052012 73 340 2.0 8.0 0.00 0.00 0.00 100 1015.6
20260503051515 73 297 2.0 8.0 0.00 0.00 0.00 100 1015.7
20260503051015 73 291 2.0 5.0 0.00 0.00 0.00 100 1015.7
20260503050514 73 246 1.0 7.0 0.00 0.00 0.00 100 1015.7
20260503050017 73 240 0.0 8.0 0.00 0.00 0.00 100 1015.8